Location: Christchurch
(43.5330°S, 172.6330°E)
Time: 06:24:49
(UTC+12:00)

Daily predictions for brighter satellites

Satellite Brightness Start Highest point End
(mag) Time Altitude Azimuth Time Altitude Azimuth Time Altitude Azimuth
Cosmos 2082 Rocket 2.6 18:02:52 10° SSW 18:08:38 73° WNW 18:14:21 10° NNE
Okean O Rocket 2.4 18:04:43 10° SSE 18:08:43 32° E 18:12:39 10° NNE
PSLV R/B 3.9 18:06:32 10° SSE 18:10:36 85° ENE 18:14:41 10° NNW
CZ-4B R/B 3.7 18:05:50 10° SSE 18:10:57 39° E 18:15:56 10° NNE
CENTAUR R/B 3.2 18:08:27 10° SW 18:13:54 49° WNW 18:18:54 10° NNE
Cosmos 1452 Rocket 4.3 18:10:55 10° NNE 18:15:31 31° E 18:20:10 10° SE
Cosmos 1862 4.4 18:13:43 10° SSE 18:17:09 25° ESE 18:20:32 10° NE
MOS 1 Rocket 4.0 18:15:49 10° NE 18:19:53 31° ESE 18:23:50 10° S
PAYLOAD B 4.3 18:15:46 10° SSE 18:21:28 68° ENE 18:27:03 10° N
Cosmos 1633 2.6 18:20:04 10° S 18:23:46 86° W 18:27:22 10° N
Envisat 3.1 18:24:00 10° SSE 18:29:05 55° E 18:34:05 10° N
Cosmos 1441 Rocket 3.8 18:25:34 10° S 18:29:23 38° ESE 18:33:06 10° NE
Cosmos 1842 Rocket 3.8 18:27:02 10° N 18:31:33 82° W 18:36:08 10° S
BREEZE-M DEB (TANK) 3.9 18:31:28 10° W 18:33:13 20° NNW 18:35:31 10° NNE
AQUARIUS 4.5 18:31:11 10° SSE 18:35:37 46° E 18:39:58 10° N
BREEZE M DEB (TANK) 0.8 18:34:57 10° W 18:36:27 61° S 18:38:00 17° ESE
Lacrosse 5 rocket 2.8 18:33:45 10° W 18:36:57 27° SSW 18:40:10 10° SSE
Cosmos 1869 3.6 18:33:11 10° NNW 18:37:06 72° W 18:41:03 10° S
Cosmos 676 Rocket 4.0 18:32:03 10° SSW 18:37:21 85° ESE 18:42:40 10° NNE
NOAA 6 4.2 18:32:05 10° SSE 18:37:23 86° WSW 18:42:35 10° NNW
Cosmos 2278 Rocket 4.2 18:33:56 10° WNW 18:38:36 25° SW 18:43:18 10° S
Cosmos 1420 Rocket 4.0 18:36:44 10° NNW 18:41:59 81° ENE 18:47:17 10° SSE
Lacrosse 4 Rocket 2.5 18:38:09 10° S 18:42:08 29° SE 18:45:24 14° ENE
Cosmos 332 Rocket 3.8 18:37:21 10° N 18:42:14 64° ENE 18:47:10 10° SSE
Cosmos 1606 4.2 18:39:58 10° NE 18:42:30 17° E 18:43:19 16° ESE
Cosmos 2366 rocket 4.1 18:38:27 10° S 18:44:56 90° W 18:51:18 10° N
Sich 1 3.6 18:42:51 10° S 18:46:55 35° ESE 18:50:59 10° NE
CZ-2C R/B 3.1 18:43:43 10° NE 18:48:52 42° ESE 18:54:10 10° S
Aureole 1 Rocket 3.4 18:47:09 10° SSW 18:50:42 62° WNW 18:55:09 10° N
Milstar 3 Cent rocket 4.2 18:49:46 10° NW 18:54:05 18° N 18:57:29 10° NNE
Cosmos 371 Rocket 3.6 18:49:17 10° NNW 18:54:08 71° WSW 18:59:04 10° SSE
Cosmos 1743 Rocket 4.0 18:50:59 10° SSW 18:55:24 65° W 18:59:47 10° N
Cosmos 2369 Rocket 2.3 18:52:47 10° N 18:58:22 54° ENE 19:03:58 10° SSE
Cosmos 1943 Rocket 2.1 18:59:22 10° NNW 19:04:55 89° ENE 19:10:31 10° SSE
FengYun 1-2 T 4.2 19:05:16 10° SSE 19:10:53 60° E 19:16:23 10° N
Cosmos 1110 Rocket 4.4 19:06:08 10° N 19:10:58 39° ENE 19:14:23 18° SE
CREW DRAGON DEMO-1 DEB 2.9 19:09:31 10° WNW 19:12:37 74° SSW 19:13:30 42° SE
SL-27 R/B 2.8 19:09:24 10° S 19:12:52 42° ESE 19:13:19 39° E
Cosmos 1741 Rocket 3.9 19:07:45 10° SSW 19:13:02 66° ESE 19:18:14 10° NNE
YAOGAN 6 3.7 19:10:39 10° S 19:14:17 48° WSW 19:17:53 10° NNW
Cosmos 2263 4.3 19:10:15 10° N 19:15:47 54° ENE 19:20:38 14° SE
RESURS DK-1 3.8 19:18:44 10° NW 19:22:40 38° WSW 19:26:38 10° SSE
Cosmos 1666 Rocket 3.5 19:21:31 10° S 19:25:57 59° E 19:30:11 11° NNE
IRIDIUM 106 4.5 19:21:05 10° S 19:26:13 48° E 19:31:18 10° NNE
CZ-4C R/B 2.9 19:19:27 10° NNW 19:27:42 82° NE 19:33:45 16° SE
H-2A R/B 4.3 19:24:55 10° NW 19:30:33 43° NNE 19:41:40 24° ENE
DELTA 2 R/B (1) 3.9 19:25:13 10° WNW 19:30:41 57° N 19:32:42 36° ENE
ATLAS 3B R/B 3.8 19:26:59 10° SW 19:33:46 46° WNW 19:40:16 10° N
Cosmos 1939 Rocket 2.7 19:35:32 62° ESE 19:35:49 64° E 19:39:43 10° N
Cosmos 1805 Rocket 4.5 19:32:13 10° SSW 19:36:32 50° W 19:40:48 10° NNW
ATLAS 2AS CENTAUR R/B 4.2 19:31:30 10° W 19:36:39 27° SW 19:41:55 10° SSE
COSMOS 2455 3.8 19:31:12 10° NW 19:36:58 45° SW 19:42:46 10° SSE
Okean-O 2.6 19:39:15 53° ESE 19:39:53 59° E 19:44:17 10° N
Cosmos 304 Rocket 4.5 19:35:12 10° NW 19:39:54 53° WSW 19:44:40 10° SSE
Okean O Rocket 3.8 19:41:17 10° S 19:44:55 25° WSW 19:48:31 10° WNW
Helios 1A Rocket 3.2 19:46:13 10° S 19:50:23 66° WSW 19:54:28 10° NNW
Cosmos 1633 Rocket 3.0 19:48:38 10° S 19:53:09 85° W 19:54:34 44° N
CZ-2C R/B 3.6 19:53:38 43° N 19:55:07 83° WNW 19:59:41 10° SSW
Cosmos 1331 Rocket 3.8 19:50:10 10° NNW 19:55:21 86° ENE 19:57:18 40° SSE
Cosmos 1833 4.1 19:51:08 10° SSW 19:56:55 78° ESE 19:58:10 56° NE
Cosmos 1934 Rocket 3.9 19:52:04 10° S 19:58:23 84° E 20:04:43 10° N
Meteor 1-25 Rocket 4.0 19:57:54 10° S 20:03:38 80° E 20:04:46 58° NNE
Cosmos 1328 Rocket 4.3 19:59:20 10° N 20:02:28 45° NNW 20:02:28 45° NNW
Cosmos 1339 Rocket 4.3 20:03:27 10° N 20:09:32 71° E 20:15:40 10° SSE
Lacrosse 5 rocket 4.0 20:15:57 10° SSW 20:16:29 11° SSW 20:16:29 11° SSW
Cosmos 1606 4.4 20:14:30 10° NW 20:17:57 32° WSW 20:18:31 30° WSW
Lacrosse 4 Rocket 3.1 20:16:45 10° SW 20:20:51 34° WNW 20:21:48 31° NW
Cosmos 1656 Rocket 4.1 20:17:32 10° NW 20:23:11 62° WSW 20:25:04 41° S
Cosmos 1151 Rocket 4.1 20:19:58 10° NNW 20:23:33 42° WNW 20:23:33 42° WNW
BREEZE-M DEB (TANK) 4.3 20:17:21 10° WSW 20:26:25 45° S 20:26:25 45° S
Cosmos 2297 Rocket 4.4 20:23:09 10° S 20:24:08 13° S 20:24:08 13° S
Cosmos 2369 Rocket 4.1 20:37:56 10° WNW 20:42:43 27° SW 20:47:10 11° S
USA 215 4.4 21:00:40 32° S 21:00:40 32° S 21:05:24 10° SW
CZ-4C R/B 4.2 21:10:14 10° W 21:16:59 31° SW 21:18:58 27° S
